Regional Weather Roundup
Issued by NWS

Home | Current Version | Previous Version | Graphics & Text | Print | Product List | Glossary On
Versions: 1 2 3 4 5 6 7 8 9 10 11 12 13 14 15 16 17 18 19 20 21 22 23 24 25 26 27 28 29 30 31 32 33 34 35 36 37 38 39 40 41 42 43 44 45 46 47 48 49 50
000
ASUS43 KLSX 011007
RWRMO

WEATHER SUMMARY FOR MISSOURI
NATIONAL WEATHER SERVICE SPRINGFIELD MO
400 AM CST SUN FEB 01 2015

NOTE: "FAIR" INDICATES FEW OR NO CLOUDS BELOW 12,000 FEET WITH NO
       SIGNIFICANT WEATHER AND/OR OBSTRUCTIONS TO VISIBILITY.
       CURRENT SKY AND/OR WEATHER CONDITIONS ARE NOT AVAILABLE FOR
       CHILLICOTHE AND FARMINGTON.

MOZ001>031-035>038-043-044-053-054-011100-
...NORTHERN AND WESTERN MISSOURI...

CITY           SKY/WX    TMP DP  RH WIND       PRES   REMARKS
KANSAS CTY INT SNOW      32  32 100 S6        29.74F VSB 1/2 WCI  26
KANSAS C DTWN  FLURRIES  33  32  96 SE5       29.75F WCI  29
LEE`S SUMMIT   MIX PCPN  33  32  96 S6        29.74F FOG     WCI  28
ST JOSEPH      LGT SNOW  32  32 100 CALM      29.76F FOG
CHILLICOTHE      N/A     33  32  96 S6        29.78F WCI  28
KIRKSVILLE     LGT SNOW  32  32 100 SE10      29.79F FOG     WCI  24

$$
MOZ066>068-077>081-088>096-101>105-011100-
...SOUTHWEST MISSOURI...

CITY           SKY/WX    TMP DP  RH WIND       PRES   REMARKS
SPRINGFIELD    LGT RAIN  37  35  92 S7        29.76F FOG
JOPLIN         LGT RAIN  40  39  97 S10       29.76F FOG

$$
MOZ032>034-039>042-045>050-055>058-069>072-011100-
...CENTRAL MISSOURI...

CITY           SKY/WX    TMP DP  RH WIND       PRES   REMARKS
COLUMBIA       LGT SNOW  33  33 100 E8        29.81F VSB 3/4 WCI  26
JEFFERSON CITY LGT SNOW  34  32  92 E10       29.83F FOG     WCI  26
ROLLA          LGT RAIN  35  33  92 S3        29.81F FOG
SEDALIA        MIX PCPN  33  32  96 SE9       29.79F FOG     WCI  25
WHITEMAN AFB   LGT RAIN  33  32  97 SE6       29.76F FOG     WCI  27
WARRENSBURG    MIX PCPN  32  32 100 SE5       29.77F WCI  27
OSAGE BEACH    CLOUDY    36  34  93 E5        29.80F

$$
MOZ051-052-059>065-011100-
...EAST CENTRAL MISSOURI...

CITY           SKY/WX    TMP DP  RH WIND       PRES   REMARKS
ST LOUIS INTL  RAIN      36  32  85 E7        29.89F FOG
SPIRIT OF STL  LGT RAIN  34  33  96 E7        29.86F FOG     WCI  28
ST CHARLES     RAIN      34  32  92 E8        29.89F FOG     WCI  27

$$
MOZ072>076-082>087-097>100-106>115-011100-
...SOUTH CENTRAL AND SOUTHEAST MISSOURI...

CITY           SKY/WX    TMP DP  RH WIND       PRES   REMARKS
CAPE GIRARDEAU CLOUDY    43  27  53 S12       29.89F
FARMINGTON     CLOUDY    37  28  70 S13       29.86F WCI  29
POPLAR BLUFF   LGT RAIN  40  32  73 SE3       29.88F
WEST PLAINS    RAIN      36  32  85 S9        29.82F FOG     WCI  29

$$



USA.gov is the U.S. government's official web portal to all federal, state and local government web resources and services.